FW0285 Weather Reports


Display with metric or nautical units.
time (UTC)temp
F
wind
direction
speed
MPH
gust
MPH
rain 1hr
in
rain 24hr
in
rain mn
in
humidity
%
barometer
mb
20260508022821 67 171 1.0 7.0 0.00 0.00 0.00 75 1014.1
20260508021321 68 163 1.0 5.0 0.00 0.00 0.00 73 1014.0
20260508020513 69 134 1.0 6.0 0.00 0.00 0.00 72 1013.8
20260508014319 70 144 2.0 6.0 0.00 0.00 0.00 70 1014.0
20260508014203 71 134 2.0 7.0 0.00 0.00 0.00 68 1013.9
20260508011319 74 171 2.0 7.0 0.00 0.00 0.00 64 1013.7
20260508005816 76 153 2.0 5.0 0.00 0.00 0.00 62 1013.7
20260508004317 76 143 1.0 5.0 0.00 0.00 0.00 62 1013.6
20260508002818 76 150 3.0 7.0 0.00 0.00 0.00 62 1013.6
20260508001314 77 149 1.0 6.0 0.00 0.00 0.00 60 1013.6
20260508000510 77 242 2.0 6.0 0.00 0.00 0.00 61 1013.7
20260507234314 78 147 2.0 5.0 0.00 0.00 0.00 59 1013.7
20260507232815 78 150 2.0 9.0 0.00 0.00 0.00 60 1013.7
20260507231314 78 152 3.0 9.0 0.00 0.00 0.00 59 1013.6
20260507225814 79 210 3.0 8.0 0.00 0.00 0.00 59 1013.8
20260507224315 79 161 2.0 10.0 0.00 0.00 0.00 58 1013.8
20260507222814 79 202 3.0 7.0 0.00 0.00 0.00 58 1013.9
20260507221314 80 264 2.0 7.0 0.00 0.00 0.00 58 1014.1
20260507215812 80 141 2.0 7.0 0.00 0.00 0.00 58 1014.1
20260507214310 79 165 3.0 7.0 0.00 0.00 0.00 59 1014.5
20260507212809 80 141 3.0 11.0 0.00 0.00 0.00 59 1014.5
20260507211306 79 176 4.0 9.0 0.00 0.00 0.00 59 1014.5
20260507205807 81 145 3.0 7.0 0.00 0.00 0.00 57 1014.6
20260507204304 81 220 3.0 10.0 0.00 0.00 0.00 57 1014.8
20260507203501 82 196 2.0 9.0 0.00 0.00 0.00 56 1014.6
20260507201304 81 194 3.0 10.0 0.00 0.00 0.00 56 1014.6
20260507200504 82 285 2.0 5.0 0.00 0.00 0.00 56 1014.9
20260507194304 81 161 2.0 5.0 0.00 0.00 0.00 56 1015.0
20260507192803 80 257 2.0 8.0 0.00 0.00 0.00 57 1015.1
20260507191302 80 273 2.0 9.0 0.00 0.00 0.00 57 1015.2
20260507185801 79 142 3.0 8.0 0.00 0.00 0.00 58 1015.4
20260507184302 79 151 2.0 7.0 0.00 0.00 0.00 58 1015.7
20260507182802 77 248 2.0 7.0 0.00 0.00 0.00 60 1015.8
20260507181301 76 144 2.0 5.0 0.00 0.00 0.00 59 1015.8
20260507175802 74 297 1.0 3.0 0.00 0.00 0.00 62 1016.0
20260507174959 73 0 1.0 5.0 0.00 0.00 0.00 62 1016.1
20260507174143 72 169 1.0 4.0 0.00 0.00 0.00 66 1016.2
20260507171303 70 133 1.0 4.0 0.00 0.00 0.00 68 1016.3
20260507165802 69 172 2.0 5.0 0.00 0.00 0.00 69 1016.4
20260507164302 66 262 1.0 5.0 0.00 0.00 0.00 73 1016.4
20260507162801 65 151 2.0 5.0 0.00 0.00 0.00 75 1016.4
20260507161301 64 159 1.0 3.0 0.00 0.00 0.00 79 1016.4
20260507155801 63 253 1.0 3.0 0.00 0.00 0.00 81 1016.4
20260507154301 62 150 1.0 5.0 0.00 0.00 0.00 84 1016.5
20260507152803 61 318 1.0 3.0 0.00 0.00 0.00 86 1016.6
20260507152004 60 317 1.0 3.0 0.00 0.00 0.00 88 1016.6
20260507145802 58 318 1.0 3.0 0.00 0.00 0.00 89 1016.6
20260507144302 58 317 0.0 0.0 0.00 0.00 0.00 89 1016.4
20260507144149 57 317 0.0 0.0 0.00 0.00 0.00 88 1016.3
20260507141955 56 317 0.0 0.0 0.00 0.00 0.00 88 1016.2
20260507135801 55 317 0.0 0.0 0.00 0.00 0.00 87 1016.1
20260507134301 55 317 0.0 0.0 0.00 0.00 0.00 87 1016.0
20260507132800 55 317 0.0 0.0 0.00 0.00 0.00 87 1015.8
20260507131302 55 317 0.0 0.0 0.00 0.00 0.00 86 1015.7
20260507130448 55 317 0.0 0.0 0.00 0.00 0.00 86 1015.7
20260507124302 55 317 0.0 0.0 0.00 0.00 0.00 86 1015.6
20260507122800 56 317 0.0 0.0 0.00 0.00 0.00 86 1015.5
20260507121301 56 317 0.0 0.0 0.00 0.00 0.00 86 1015.5
20260507115801 56 317 0.0 0.0 0.00 0.00 0.00 86 1015.6
20260507114302 56 317 0.0 0.0 0.00 0.00 0.00 86 1015.8
20260507112802 56 317 0.0 0.0 0.00 0.00 0.00 86 1015.8
20260507111302 57 317 0.0 0.0 0.00 0.00 0.00 85 1016.0
20260507105800 57 317 0.0 0.0 0.00 0.00 0.00 85 1016.0
20260507104301 57 317 0.0 0.0 0.00 0.00 0.00 85 1016.0
20260507102801 58 317 0.0 0.0 0.00 0.00 0.00 85 1016.1
20260507101301 58 317 0.0 0.0 0.00 0.00 0.00 85 1016.1
20260507100503 58 317 0.0 0.0 0.00 0.00 0.00 84 1016.0
20260507094302 58 317 0.0 0.0 0.00 0.00 0.00 84 1016.2
20260507092802 59 317 0.0 0.0 0.00 0.00 0.00 84 1016.3
20260507091301 59 317 0.0 0.0 0.00 0.00 0.00 83 1016.5
20260507085801 59 317 0.0 0.0 0.00 0.00 0.00 83 1016.7
20260507084300 59 317 0.0 0.0 0.00 0.00 0.00 82 1016.8
20260507082803 59 317 0.0 0.0 0.00 0.00 0.00 82 1016.9
20260507081959 60 317 0.0 0.0 0.00 0.00 0.00 82 1017.0
20260507075801 60 317 0.0 0.0 0.00 0.00 0.00 82 1017.1
20260507074300 60 317 0.0 0.0 0.00 0.00 0.00 81 1017.0
20260507072800 60 317 0.0 0.0 0.00 0.00 0.00 81 1016.9
20260507071302 61 317 0.0 0.0 0.00 0.00 0.00 81 1017.0
20260507065803 61 317 0.0 0.0 0.00 0.00 0.00 80 1017.1
20260507065003 61 317 0.0 0.0 0.00 0.00 0.00 79 1017.2
20260507062803 61 317 0.0 0.0 0.00 0.00 0.00 79 1017.2
20260507061302 61 317 0.0 0.0 0.00 0.00 0.00 78 1017.2
20260507055759 62 317 0.0 0.0 0.00 0.00 0.00 77 1017.3
20260507054257 62 317 0.0 0.0 0.00 0.00 0.00 77 1017.2
20260507052755 62 317 0.0 0.0 0.00 0.00 0.00 76 1017.2
20260507052633 62 317 0.0 0.0 0.00 0.00 0.00 75 1017.2
20260507045751 62 317 0.0 0.0 0.00 0.00 0.00 75 1017.2
20260507044249 62 317 0.0 0.0 0.00 0.00 0.00 74 1017.1
20260507043446 63 317 0.0 1.0 0.00 0.00 0.00 73 1017.1
20260507041247 63 317 0.0 3.0 0.00 0.00 0.00 73 1017.0
20260507040435 63 355 1.0 3.0 0.00 0.00 0.00 72 1016.8
20260507034247 64 338 1.0 3.0 0.00 0.00 0.00 71 1016.7
20260507032746 64 279 1.0 3.0 0.00 0.00 0.00 70 1016.6
20260507031947 65 301 1.0 4.0 0.00 0.00 0.00 70 1016.6
20260507025745 66 323 1.0 4.0 0.00 0.00 0.00 68 1016.5
20260507024247 67 314 1.0 4.0 0.00 0.00 0.00 67 1016.3